Location: Balls_Creek
(35.6670°N, 81.1170°W)
Time: 18:55:01
(UTC-04:00)

Daily predictions for brighter satellites

Satellite Brightness Start Highest point End
(mag) Time Altitude Azimuth Time Altitude Azimuth Time Altitude Azimuth
Cosmos 1302 Rocket 4.1 20:24:52 10° S 20:29:56 55° ESE 20:34:59 10° NNE
Envisat 4.5 20:27:01 10° ESE 20:30:35 20° ENE 20:34:10 10° NNE
Meteor 2-3 Rocket 3.8 20:26:43 10° N 20:32:25 71° E 20:38:09 10° SSE
FREGAT/IRIS 4.0 20:32:47 10° S 20:35:39 41° W 20:38:33 10° NNW
Cosmos 1980 Rocket 2.3 20:30:46 10° SSW 20:36:26 89° WNW 20:42:11 10° NNE
Cosmos 1315 Rocket 3.7 20:32:58 10° NNE 20:36:38 32° ENE 20:40:14 10° SE
USA 234 4.2 20:36:23 10° E 20:42:09 35° NNE 20:47:56 10° NNW
SEDSat Delta rocket 4.2 20:40:23 10° SW 20:45:06 37° SSE 20:50:26 10° E
Intercosmos 25 Rocket 4.5 20:43:24 10° SE 20:45:37 18° E 20:48:02 10° NE
Cosmos 2227 Rocket 4.3 20:42:01 10° NW 20:46:43 28° WSW 20:51:24 10° SSW
OTV 4 1.4 20:44:05 10° W 20:46:44 35° SSW 20:49:08 12° SE
CZ-2D R/B 3.3 20:44:51 10° SSE 20:48:40 60° ENE 20:52:31 10° N
Cosmos 1825 3.7 20:47:41 10° NNE 20:50:25 19° ENE 20:52:20 14° ESE
SL-16 R/B 2.6 20:47:43 10° S 20:52:58 40° ESE 20:58:15 10° NE
Nadezhda 4 Rocket 4.1 20:49:07 10° N 20:55:24 87° W 21:01:43 10° S
GPS 2-04 Rocket1 4.2 20:55:57 10° WSW 20:58:50 23° SSW 21:01:34 11° SSE
Cosmos 1634 Rocket 4.0 20:54:16 10° S 21:00:28 65° E 21:06:43 10° NNE
ATLAS 5 CENTAUR R/B 4.3 20:58:38 10° N 21:02:06 15° NE 21:05:42 10° ENE
Cosmos 1707 Rocket 3.6 20:58:15 10° S 21:02:42 87° W 21:07:09 10° N
ERS-1 Rocket 4.5 21:02:10 14° E 21:04:29 19° ENE 21:07:59 10° NNE
USA 186 1.2 21:02:40 14° SSE 21:04:49 68° ENE 21:07:37 10° N
Cosmos 1092 Rocket 4.0 20:58:48 10° N 21:05:09 79° E 21:11:30 10° S
Helios 1B rocket 2.5 21:01:55 10° NNE 21:05:57 55° E 21:09:57 10° S
Lacrosse 4 Rocket 2.8 21:03:01 10° N 21:06:40 26° ENE 21:08:46 18° E
ALOS 4.1 21:04:23 10° SSW 21:08:33 32° W 21:12:46 10° NNW
SAR-Lupe-4 3.8 21:07:59 18° SE 21:10:26 48° ENE 21:13:55 10° N
Cosmos 1939 Rocket 3.7 21:08:26 19° SE 21:10:39 33° ENE 21:14:18 10° N
ERBS 3.4 21:08:03 10° NNW 21:11:12 32° NE 21:12:44 22° E
Gblst 52 Del rocket 4.4 21:06:25 10° NW 21:12:12 68° SW 21:16:27 17° SE
Cosmos 1733 Rocket 4.1 21:08:36 10° NNE 21:12:28 28° ENE 21:14:14 22° ESE
Cosmos 1486 Rocket 4.0 21:09:00 10° NNW 21:14:16 89° ENE 21:19:20 11° SSE
Cosmos 1862 Rocket 4.2 21:13:00 17° SSE 21:15:52 34° E 21:19:56 10° NNE
SeaSat 1 4.5 21:17:14 11° ENE 21:19:06 13° NE 21:21:21 10° NNE
Resurs 1-3 4.4 21:15:57 10° S 21:20:13 51° W 21:24:30 10° NNW
Cosmos 1992 Rocket 4.1 21:17:31 10° S 21:22:34 52° ESE 21:27:38 10° NNE
Cosmos 1869 Rocket 4.4 21:19:21 10° NNW 21:23:42 51° W 21:28:01 10° SSW
Cosmos 2227 4.2 21:18:50 10° NNW 21:24:36 86° WSW 21:29:15 16° SSE
Cosmos 1408 2.6 21:22:22 10° N 21:26:01 56° E 21:27:28 32° SE
Atlas Centaur 2 3.3 21:20:21 10° SW 21:26:53 42° SSE 21:31:32 22° ESE
SAR-Lupe-1 3.9 21:26:08 27° SSE 21:27:54 72° ENE 21:31:30 10° N
Cosmos 2242 Rocket 3.6 21:29:43 10° S 21:34:15 82° W 21:38:46 10° N
Cosmos 1627 Rocket 4.5 21:33:07 10° N 21:39:20 85° W 21:45:01 12° S
Helios 1A 3.4 21:36:34 16° S 21:39:47 63° WSW 21:44:01 10° NNW
Cosmos 2279 Rocket 3.9 21:35:29 10° S 21:41:42 81° E 21:47:58 10° N
Cosmos 1503 Rocket 3.9 21:40:22 10° NNW 21:45:39 87° ENE 21:48:09 32° SSE
DELTA 2 R/B (1) 4.2 21:42:08 10° WNW 21:47:30 46° SSW 21:49:34 32° SSE
Cosmos 1354 Rocket 4.0 21:44:20 10° NNW 21:49:37 85° WSW 21:52:09 32° SSE
Resurs 01 Rocket 4.1 21:48:15 10° SW 21:51:29 20° W 21:54:45 10° NW
MINOTAUR IV R/B 4.5 21:47:55 10° NNW 21:52:30 78° ENE 21:53:36 51° SE
H-2A R/B 3.7 21:52:50 17° ENE 21:52:50 17° ENE 21:55:40 10° NNE
SJ-11-01 4.5 21:51:18 26° S 21:53:54 69° WSW 21:58:34 10° NNW
CZ-4B DEB 3.8 21:54:21 35° SW 21:54:55 40° W 21:57:48 10° NNW
OAO 3 Rocket 3.1 21:50:22 10° W 21:55:18 85° S 21:56:38 49° E
YAOGAN 6 2.5 21:56:56 74° ENE 21:56:56 74° ENE 22:00:31 10° N
Cosmos 1428 Rocket 4.3 21:55:41 10° N 22:01:49 88° E 22:04:53 32° S
FALCON 9 R/B 2.7 22:00:04 10° W 22:00:47 18° W 22:00:47 18° W
SPOT 5 3.6 22:04:10 37° ENE 22:04:10 37° ENE 22:08:24 10° N
Cosmos 968 Rocket 4.1 22:01:52 10° N 22:06:43 38° ENE 22:06:50 38° ENE
Cosmos 2263 Rocket 2.1 22:01:42 10° NNW 22:07:17 71° ENE 22:08:25 54° SE
COSMOS 2428 4.3 22:10:12 19° ENE 22:10:12 19° ENE 22:12:10 10° NE
Meteor 2-10 Rocket 3.6 22:05:36 33° S 22:08:21 78° E 22:14:11 10° NNE
Cosmos 2322 Rocket 3.4 22:03:57 10° SW 22:09:12 41° WNW 22:14:31 10° N
Envisat 4.0 22:05:47 18° SSW 22:09:15 43° W 22:14:05 10° NNW
Cosmos 1933 4.2 22:11:29 28° SW 22:13:13 48° W 22:17:09 10° N
Sich 1 Rocket 3.8 22:12:35 10° N 22:16:31 60° NE 22:16:31 60° NE
Cosmos 2360 Rocket 2.1 22:15:49 23° SSW 22:19:26 89° ESE 22:25:08 10° NNE
H-2A R/B 4.3 22:23:59 14° NE 22:23:59 14° NE 22:25:01 10° NNE
USA 234 3.3 22:22:54 47° SSE 22:24:49 68° SW 22:31:21 10° NW
Cosmos 1825 4.4 22:22:58 10° NW 22:25:54 21° W 22:27:15 18° WSW
Cosmos 2322 3.6 22:25:27 45° SSW 22:27:18 88° ESE 22:33:02 10° NNE
NOAA 11 4.0 22:28:03 72° SSE 22:28:39 89° ENE 22:34:10 10° NNW
Cosmos 1908 Rocket 3.9 22:25:15 10° N 22:28:49 60° N 22:28:49 60° N
USA 245 4.2 22:30:44 71° ESE 22:31:03 72° ENE 22:36:25 10° N
SEDSat Delta rocket 3.9 22:25:39 10° WSW 22:30:34 55° SSW 22:30:34 55° SSW
SL-16 R/B 4.3 22:32:34 10° WSW 22:37:10 25° WNW 22:41:48 10° N
SPOT 1/Viking Rocket 3.9 22:40:22 54° NE 22:40:22 54° NE 22:44:43 10° N
MetOp-B 4.2 22:42:09 70° WSW 22:42:21 70° WSW 22:47:43 10° NNW
ERS-1 Rocket 3.8 22:42:09 40° WSW 22:42:54 43° W 22:47:40 10° NNW
Lacrosse 4 Rocket 3.2 22:41:40 10° NW 22:45:08 26° WSW 22:45:08 26° WSW
ATLAS 5 CENTAUR R/B 2.3 22:41:31 10° NNW 22:47:40 78° ENE 22:47:45 78° ENE
ARGOS 3.3 22:52:58 70° WNW 22:52:58 70° WNW 22:57:56 10° NNW
Milstar 3 3.7 22:48:04 10° W 22:53:09 33° SW 22:53:09 33° SW
SeaSat 1 3.0 22:57:02 56° NW 22:57:02 56° NW 23:00:56 10° NNW
Cosmos 2278 Rocket 4.2 22:57:24 10° NNE 23:00:07 17° NE 23:00:07 17° NE
Terra 3.5 23:10:04 27° NNE 23:10:04 27° NNE 23:12:21 10° N
Cosmos 1844 Rocket 3.7 23:05:16 10° N 23:09:04 38° NNE 23:09:04 38° NNE
USA 229 DEB 4.2 23:04:02 10° SW 23:10:43 57° NW 23:17:32 10° NNE
USA 229 4.1 23:04:07 10° SW 23:10:47 58° NW 23:17:37 10° NNE
Atlas Centaur 2 3.4 23:08:39 10° WSW 23:14:12 48° SW 23:14:12 48° SW
Cosmos 2219 Rocket 3.9 23:28:37 25° NNE 23:28:37 25° NNE 23:30:49 10° NNE
H-2A R/B 3.5 23:33:27 33° NW 23:33:27 33° NW 23:36:24 10° NNW
CZ-4C R/B 4.0 23:25:39 10° NNW 23:31:56 31° NE 23:32:09 31° NE
COSMOS 2428 4.1 23:52:08 33° NW 23:52:08 33° NW 23:56:38 10° N
H-2A R/B 4.1 23:16:17 10° W 23:51:40 50° SW 23:51:40 50° SW
